Regional Weather Roundup
Issued by NWS

Home | Current Version | Previous Version | Graphics & Text | Print | Product List | Glossary On
Versions: 1 2 3 4 5 6 7 8 9 10 11 12 13 14 15 16 17 18 19 20 21 22 23 24 25 26 27 28 29 30 31 32 33 34 35 36 37 38 39 40 41 42 43 44 45 46 47 48 49 50
000
ASUS43 KBIS 250710
RWRND

NORTH DAKOTA REGIONAL WEATHER ROUNDUP
NATIONAL WEATHER SERVICE BISMARCK ND
200 AM CDT FRI JUL 25 2014

NOTE: "FAIR" INDICATES FEW OR NO CLOUDS BELOW 12,000 FEET WITH NO
SIGNIFICANT WEATHER AND/OR OBSTRUCTIONS TO VISIBILITY.


NDZ001>003-009>011-017-250800-
NORTHWEST NORTH DAKOTA

CITY           SKY/WX    TMP DP  RH WIND       PRES   REMARKS
WILLISTON      PTCLDY    59  54  83 N6        29.83S
MINOT          CLOUDY    67  66  97 N6        29.76F
MINOT AFB      DRIZZLE   68  68 100 SE10      29.72F
$$

NDZ018>021-031>035-040>046-250800-
SOUTHWEST NORTH DAKOTA

CITY           SKY/WX    TMP DP  RH WIND       PRES   REMARKS
BISMARCK       PTCLDY    68  64  87 NW5       29.70R
DICKINSON      CLEAR     63  61  93 NW16      29.81R
GARRISON         N/A     69  67  93 NE6       29.74S
HETTINGER ARPT PTCLDY    65  59  81 NW20G31   29.79R
$$

NDZ004>008-012>016-024-026-027-054-250800-
NORTHEAST NORTH DAKOTA

CITY           SKY/WX    TMP DP  RH WIND       PRES   REMARKS
GRAND FORKS    CLOUDY    70  61  73 SE7       29.77F
GRND FRKS AFB  CLOUDY    68  65  90 NE3       29.78F
DEVILS LAKE    CLOUDY    66  61  82 SE21      29.68F
$$

NDZ022-023-025-028>030-036>039-047>053-250800-
SOUTHEAST NORTH DAKOTA

CITY           SKY/WX    TMP DP  RH WIND       PRES   REMARKS
FARGO          MOCLDY    69  62  78 E6        29.74F
JAMESTOWN      CLOUDY    66  63  90 E9        29.70F
$$




USA.gov is the U.S. government's official web portal to all federal, state and local government web resources and services.